Radiation Dose at Monitoring Post of Fukushima Daini Nuclear Power Station
Date,Time,MP-1(microSv/h),MP-2(microSv/h),MP-3(microSv/h),MP-4(microSv/h),MP-5(microSv/h),MP-6(microSv/h),MP-7(microSv/h),Wind Direction,Wind Velocity(m/s),Rain
2021/03/31,00:00,0.169,0.151,0.246,0.233,0.235,0.133,0.081,north-northwest,5.9,No
2021/03/31,00:10,0.170,0.151,0.246,0.235,0.235,0.133,0.082,north-northwest,6.4,No
2021/03/31,00:20,0.169,0.152,0.247,0.233,0.233,0.132,0.082,north-northwest,6.3,No
2021/03/31,00:30,0.170,0.152,0.247,0.235,0.235,0.134,0.083,north-northwest,7.1,No
2021/03/31,00:40,0.170,0.151,0.248,0.235,0.235,0.132,0.083,north-northwest,8.1,No
2021/03/31,00:50,0.169,0.152,0.248,0.235,0.236,0.133,0.083,north-northwest,8.6,No
2021/03/31,01:00,0.170,0.151,0.246,0.235,0.234,0.132,0.082,north-northwest,9.0,No
2021/03/31,01:10,0.169,0.152,0.249,0.235,0.235,0.133,0.083,northwest,9.8,No
2021/03/31,01:20,0.171,0.151,0.247,0.235,0.234,0.133,0.083,northwest,7.6,No
2021/03/31,01:30,0.170,0.152,0.247,0.234,0.235,0.133,0.083,north-northwest,6.0,Yes
2021/03/31,01:40,0.169,0.152,0.248,0.235,0.235,0.134,0.083,north-northwest,6.9,Yes
2021/03/31,01:50,0.170,0.151,0.247,0.236,0.235,0.133,0.083,northwest,7.6,No
2021/03/31,02:00,0.170,0.152,0.247,0.235,0.236,0.133,0.083,northwest,7.7,Yes
2021/03/31,02:10,0.171,0.153,0.249,0.236,0.236,0.136,0.086,northwest,5.4,Yes
2021/03/31,02:20,0.173,0.154,0.249,0.238,0.240,0.138,0.088,north-northwest,8.9,Yes
2021/03/31,02:30,0.175,0.156,0.251,0.238,0.238,0.138,0.089,north-northwest,8.4,Yes
2021/03/31,02:40,0.174,0.155,0.252,0.240,0.239,0.140,0.090,north-northwest,6.3,Yes
2021/03/31,02:50,0.174,0.156,0.251,0.237,0.239,0.138,0.089,north-northwest,4.2,No
2021/03/31,03:00,0.174,0.155,0.251,0.237,0.238,0.136,0.088,north-northwest,6.3,No
2021/03/31,03:10,0.172,0.154,0.250,0.238,0.239,0.137,0.087,north-northwest,5.4,No
2021/03/31,03:20,0.173,0.154,0.249,0.236,0.237,0.135,0.086,north-northwest,5.5,No
2021/03/31,03:30,0.172,0.154,0.249,0.235,0.237,0.135,0.086,north-northwest,4.0,No
2021/03/31,03:40,0.171,0.152,0.247,0.236,0.235,0.134,0.084,north,3.7,No
2021/03/31,03:50,0.172,0.152,0.248,0.235,0.236,0.134,0.084,north,4.1,No
2021/03/31,04:00,0.171,0.153,0.249,0.234,0.235,0.134,0.084,north,4.8,No
2021/03/31,04:10,0.171,0.151,0.247,0.236,0.235,0.134,0.084,north-northwest,6.2,No
2021/03/31,04:20,0.170,0.153,0.246,0.233,0.234,0.133,0.084,north-northwest,7.9,No
2021/03/31,04:30,0.170,0.152,0.248,0.235,0.235,0.133,0.083,north-northwest,7.4,No
2021/03/31,04:40,0.171,0.152,0.247,0.234,0.235,0.132,0.083,north-northwest,8.1,No
2021/03/31,04:50,0.169,0.151,0.247,0.233,0.235,0.134,0.083,north-northwest,8.3,No
2021/03/31,05:00,0.170,0.151,0.247,0.235,0.234,0.133,0.083,north-northwest,8.6,No
2021/03/31,05:10,0.170,0.151,0.248,0.233,0.235,0.134,0.082,north-northwest,8.3,No
2021/03/31,05:20,0.169,0.152,0.246,0.233,0.234,0.132,0.082,north-northwest,7.0,No
2021/03/31,05:30,0.170,0.151,0.247,0.235,0.235,0.133,0.083,north-northwest,6.3,No
2021/03/31,05:40,0.170,0.151,0.246,0.234,0.234,0.133,0.082,north-northwest,5.3,No
2021/03/31,05:50,0.170,0.150,0.246,0.232,0.234,0.133,0.082,north-northwest,4.7,No
2021/03/31,06:00,0.170,0.151,0.247,0.234,0.235,0.133,0.083,north-northwest,6.4,No
2021/03/31,06:10,0.169,0.151,0.247,0.233,0.234,0.132,0.082,north-northwest,7.1,No
2021/03/31,06:20,0.169,0.152,0.245,0.233,0.233,0.133,0.082,north-northwest,7.0,No
2021/03/31,06:30,0.170,0.151,0.246,0.235,0.235,0.132,0.083,northwest,7.6,No
2021/03/31,06:40,0.169,0.151,0.247,0.233,0.234,0.133,0.083,north-northwest,6.5,No
2021/03/31,06:50,0.170,0.152,0.246,0.233,0.233,0.132,0.082,northwest,5.4,No
2021/03/31,07:00,0.169,0.151,0.246,0.233,0.235,0.133,0.082,northwest,4.8,No
2021/03/31,07:10,0.170,0.150,0.247,0.233,0.234,0.133,0.082,north-northwest,3.1,No
2021/03/31,07:20,0.169,0.151,0.246,0.233,0.235,0.132,0.082,north-northwest,4.6,No
2021/03/31,07:30,0.168,0.151,0.246,0.234,0.235,0.132,0.082,north-northwest,4.7,No
2021/03/31,07:40,0.170,0.151,0.245,0.233,0.234,0.132,0.082,north-northwest,5.0,No
2021/03/31,07:50,0.170,0.150,0.246,0.232,0.235,0.132,0.082,north-northwest,5.0,No
2021/03/31,08:00,0.170,0.151,0.245,0.232,0.234,0.132,0.082,north-northwest,5.8,No
2021/03/31,08:10,0.169,0.151,0.245,0.232,0.234,0.132,0.082,northwest,6.5,No
2021/03/31,08:20,0.169,0.150,0.246,0.232,0.232,0.132,0.082,north-northwest,7.3,No
2021/03/31,08:30,0.169,0.149,0.246,0.233,0.234,0.131,0.082,north-northwest,10.0,No
2021/03/31,08:40,0.169,0.151,0.246,0.232,0.233,0.132,0.081,northwest,6.8,No
2021/03/31,08:50,0.169,0.150,0.245,0.233,0.234,0.131,0.082,north-northwest,7.6,No
2021/03/31,09:00,0.168,0.150,0.247,0.232,0.232,0.132,0.081,north-northwest,9.5,No
2021/03/31,09:10,0.169,0.150,0.245,0.232,0.234,0.132,0.082,north-northwest,8.6,No
2021/03/31,09:20,0.169,0.150,0.247,0.233,0.233,0.132,0.082,north-northwest,8.9,No
2021/03/31,09:30,0.169,0.150,0.246,0.231,0.233,0.132,0.082,north-northwest,9.6,No
2021/03/31,09:40,0.170,0.150,0.246,0.233,0.234,0.131,0.081,north-northwest,9.6,No
2021/03/31,09:50,0.168,0.150,0.247,0.234,0.233,0.132,0.082,north-northwest,9.3,No
2021/03/31,10:00,0.171,0.151,0.245,0.230,0.234,0.132,0.081,north-northwest,9.0,No
2021/03/31,10:10,0.169,0.151,0.249,0.234,0.233,0.131,0.081,north-northwest,6.7,No
2021/03/31,10:20,0.171,0.150,0.246,0.232,0.232,0.132,0.082,northwest,5.9,No
2021/03/31,10:30,0.170,0.151,0.248,0.231,0.234,0.133,0.081,north-northwest,7.8,No
2021/03/31,10:40,0.169,0.150,0.247,0.234,0.232,0.132,0.082,north-northwest,6.8,No
2021/03/31,10:50,0.170,0.151,0.244,0.235,0.231,0.132,0.081,north,6.6,No
2021/03/31,11:00,0.169,0.151,0.248,0.233,0.235,0.133,0.082,north,7.4,No
2021/03/31,11:10,0.169,0.151,0.246,0.232,0.234,0.132,0.082,north-northeast,8.4,No
2021/03/31,11:20,0.171,0.151,0.245,0.234,0.232,0.132,0.082,north-northeast,9.2,No
2021/03/31,11:30,0.170,0.150,0.249,0.232,0.236,0.133,0.083,north-northeast,7.5,No
2021/03/31,11:40,0.170,0.151,0.246,0.236,0.234,0.132,0.082,north-northeast,7.7,No
2021/03/31,11:50,0.169,0.151,0.248,0.236,0.232,0.131,0.081,northeast,8.1,No
2021/03/31,12:00,0.170,0.152,0.247,0.232,0.236,0.133,0.082,northeast,8.7,No
2021/03/31,12:10,0.168,0.151,0.249,0.234,0.234,0.131,0.081,north-northeast,9.5,No
2021/03/31,12:20,0.170,0.151,0.247,0.235,0.233,0.133,0.082,north-northeast,9.3,No
2021/03/31,12:30,0.169,0.151,0.249,0.234,0.236,0.134,0.083,north-northeast,9.5,No
2021/03/31,12:40,0.171,0.151,0.247,0.237,0.234,0.132,0.082,north-northeast,9.3,No
2021/03/31,12:50,0.169,0.152,0.247,0.234,0.232,0.133,0.083,north-northeast,7.2,No
2021/03/31,13:00,0.170,0.151,0.250,0.234,0.235,0.133,0.082,north-northeast,7.8,No
2021/03/31,13:10,0.170,0.152,0.248,0.235,0.234,0.132,0.081,north-northeast,8.1,No
2021/03/31,13:20,0.169,0.150,0.249,0.234,0.232,0.132,0.083,northeast,6.2,No
2021/03/31,13:30,0.170,0.152,0.247,0.234,0.236,0.133,0.082,northeast,6.2,No
2021/03/31,13:40,0.169,0.151,0.249,0.235,0.235,0.132,0.082,north-northeast,7.0,No
2021/03/31,13:50,0.169,0.152,0.248,0.233,0.232,0.133,0.083,northeast,6.2,No
2021/03/31,14:00,0.170,0.152,0.248,0.235,0.236,0.132,0.082,northeast,7.7,No
2021/03/31,14:10,0.169,0.152,0.248,0.236,0.236,0.133,0.083,northeast,8.4,No
2021/03/31,14:20,0.169,0.152,0.248,0.233,0.233,0.131,0.082,north-northeast,7.8,No
2021/03/31,14:30,0.169,0.151,0.247,0.235,0.235,0.133,0.081,north-northeast,7.3,No
2021/03/31,14:40,0.170,0.152,0.247,0.235,0.235,0.132,0.084,north-northeast,8.4,No
2021/03/31,14:50,0.170,0.151,0.249,0.234,0.234,0.132,0.082,northeast,6.7,No
2021/03/31,15:00,0.169,0.152,0.246,0.236,0.235,0.133,0.083,northeast,5.6,No
2021/03/31,15:10,0.171,0.151,0.249,0.235,0.236,0.133,0.082,north-northeast,5.1,No
2021/03/31,15:20,0.169,0.153,0.248,0.235,0.233,0.132,0.082,northeast,5.0,No
2021/03/31,15:30,0.171,0.152,0.249,0.234,0.234,0.132,0.082,north-northeast,4.2,No
2021/03/31,15:40,0.170,0.151,0.249,0.236,0.235,0.132,0.082,northeast,4.0,No
2021/03/31,15:50,0.170,0.152,0.248,0.235,0.233,0.132,0.082,north-northeast,3.1,No
2021/03/31,16:00,0.169,0.152,0.249,0.235,0.233,0.132,0.082,north-northeast,3.6,No
2021/03/31,16:10,0.170,0.152,0.249,0.235,0.235,0.133,0.083,north-northeast,4.0,No
2021/03/31,16:20,0.170,0.152,0.249,0.235,0.233,0.133,0.082,north,3.3,No
2021/03/31,16:30,0.170,0.152,0.248,0.236,0.235,0.133,0.083,north-northeast,3.5,No
2021/03/31,16:40,0.171,0.152,0.250,0.236,0.235,0.133,0.082,north,3.5,No
2021/03/31,16:50,0.169,0.152,0.247,0.235,0.233,0.133,0.082,north,2.8,No
2021/03/31,17:00,0.170,0.152,0.249,0.237,0.237,0.133,0.083,north,2.4,No
2021/03/31,17:10,0.171,0.152,0.248,0.235,0.233,0.132,0.081,north,2.7,No
2021/03/31,17:20,0.170,0.151,0.249,0.235,0.237,0.134,0.083,north,4.1,No
2021/03/31,17:30,0.170,0.153,0.248,0.237,0.235,0.133,0.082,north,4.0,No
2021/03/31,17:40,0.170,0.152,0.248,0.235,0.236,0.133,0.082,north,3.0,No
2021/03/31,17:50,0.172,0.152,0.249,0.237,0.235,0.132,0.081,north-northeast,3.4,No
2021/03/31,18:00,0.170,0.152,0.249,0.235,0.236,0.133,0.082,north-northeast,1.7,No
2021/03/31,18:10,0.170,0.151,0.249,0.237,0.235,0.133,0.082,north,1.9,No
2021/03/31,18:20,0.170,0.152,0.249,0.235,0.236,0.133,0.082,north-northeast,3.7,No
2021/03/31,18:30,0.170,0.152,0.248,0.235,0.235,0.133,0.083,north-northeast,2.7,No
2021/03/31,18:40,0.171,0.151,0.247,0.236,0.235,0.133,0.081,north-northeast,2.8,No
2021/03/31,18:50,0.169,0.152,0.250,0.236,0.236,0.134,0.082,north,3.2,No
2021/03/31,19:00,0.171,0.152,0.249,0.236,0.235,0.134,0.082,north,3.9,No
2021/03/31,19:10,0.171,0.152,0.249,0.237,0.235,0.133,0.082,north,3.0,No
2021/03/31,19:20,0.170,0.151,0.251,0.235,0.236,0.133,0.082,north,2.8,No
2021/03/31,19:30,0.170,0.152,0.249,0.235,0.234,0.133,0.082,north,2.5,No
2021/03/31,19:40,0.170,0.152,0.248,0.236,0.237,0.134,0.083,north,2.3,No
2021/03/31,19:50,0.171,0.152,0.250,0.235,0.235,0.133,0.082,north-northwest,1.7,No
2021/03/31,20:00,0.170,0.152,0.250,0.236,0.236,0.133,0.082,-,CALM,No
2021/03/31,20:10,0.171,0.152,0.249,0.236,0.236,0.134,0.082,-,CALM,No
2021/03/31,20:20,0.171,0.152,0.247,0.235,0.234,0.133,0.083,northwest,0.8,No
2021/03/31,20:30,0.170,0.153,0.249,0.235,0.234,0.133,0.082,north,1.0,No
2021/03/31,20:40,0.171,0.153,0.248,0.237,0.235,0.133,0.083,north-northwest,0.9,No
2021/03/31,20:50,0.171,0.152,0.250,0.236,0.235,0.133,0.083,north-northwest,1.5,No
2021/03/31,21:00,0.170,0.152,0.249,0.235,0.236,0.133,0.082,north-northwest,2.5,No
2021/03/31,21:10,0.171,0.153,0.248,0.236,0.234,0.134,0.083,north-northwest,4.1,No
2021/03/31,21:20,0.172,0.152,0.249,0.237,0.235,0.133,0.083,northwest,4.7,No
2021/03/31,21:30,0.170,0.152,0.250,0.235,0.236,0.134,0.083,northwest,5.1,No
2021/03/31,21:40,0.171,0.153,0.250,0.236,0.235,0.134,0.082,northwest,3.7,No
2021/03/31,21:50,0.171,0.152,0.249,0.236,0.235,0.133,0.082,northwest,2.7,No
2021/03/31,22:00,0.171,0.152,0.249,0.236,0.235,0.134,0.083,northwest,3.9,No
2021/03/31,22:10,0.171,0.153,0.250,0.235,0.234,0.134,0.083,northwest,4.0,No
2021/03/31,22:20,0.171,0.152,0.249,0.235,0.236,0.133,0.083,northwest,3.2,No
2021/03/31,22:30,0.170,0.153,0.249,0.236,0.236,0.134,0.082,north-northwest,2.9,No
2021/03/31,22:40,0.171,0.153,0.249,0.236,0.234,0.133,0.083,north-northwest,3.6,No
2021/03/31,22:50,0.170,0.152,0.251,0.237,0.235,0.133,0.082,north-northwest,4.0,No
2021/03/31,23:00,0.170,0.152,0.250,0.237,0.236,0.133,0.083,north-northwest,4.6,No
2021/03/31,23:10,0.171,0.154,0.250,0.236,0.235,0.133,0.083,north-northwest,5.5,No
2021/03/31,23:20,0.172,0.153,0.249,0.236,0.237,0.134,0.082,north-northwest,5.1,No
2021/03/31,23:30,0.170,0.153,0.250,0.236,0.236,0.135,0.083,north-northwest,4.2,No
2021/03/31,23:40,0.172,0.152,0.251,0.237,0.236,0.133,0.083,north-northwest,4.4,No
2021/03/31,23:50,0.171,0.153,0.249,0.236,0.235,0.134,0.083,north-northwest,4.2,No
